Location: An Tulaigh
(53.1928°N, 8.1647°W)
Time: 02:29:44
(UTC+00:00)

ISS - Pass Details

Date: 15 May 2026
Orbit: 413 x 422 km, 51.6° (Epoch: 8 June)

Event Time Altitude Azimuth Distance (km) Brightness Sun altitude
Rises 21:19:31 0° 262° (W) 2,348 0.6 -7.0°
Reaches altitude 10° 21:21:37 10° 260° (W) 1,487 -0.5 -7.2°
Maximum altitude 21:24:55 68° 177° (S) 452 -3.8 -7.6°
Drops below altitude 10° 21:28:15 10° 94° (E) 1,490 -1.4 -7.9°
Enters shadow 21:29:27 - 93° (E) 1,983 -0.8 -8.1°
